sat.trackr.live / text

‹ back to catalog

STARLINK-35443

NORAD 66339 · 2025-253W

PAYLOAD ACTIVE UNKNOWN

§ Identity

Operator
Country
US
Launch date
2025-11-06
Launch site
AFETR
Launch vehicle
Mass (kg)
RCS (m²)

Purposes: comms

External: N2YO · Heavens-Above · Gunter

§ Orbital elements

Epoch: 2026-05-24T23:44:15.486432Z

Period
94.27 min
Inclination
42.9979°
Eccentricity
0.0000859
Mean motion
15.27599884 rev/d
Perigee alt
482.4 km
Apogee alt
483.6 km
Semi-major
6,861.1 km
B*
8.7276e-4
RAAN
141.5890°
Arg perigee
240.6235°
Mean anomaly
119.4531°
Rev number
3,191

§ Raw data

STARLINK-354431 66339U 25253W   26144.98906813  .00023847  00000+0  87276-3 0  99912 66339  42.9979 141.5890 0000859 240.6235 119.4531 15.27599884 31917

JSON: /api/v1/satellites/66339 · /tle

For live sub-satellite position, see the globe view (requires WebGL).

§ Visibility from observer

Set your observer location to see the next 7 days of passes ≥ 10°. The values pass through the URL so the page stays shareable.

No JS? Fill the form by hand. The geolocation button needs JavaScript.